Weather in Lawas

Malaysia     4°51′25″N   115°23′59″E
temp.,
°C
wind,
m/s
gust,
m/s
humid.,
%
clouds,
%
prec.,
mm/h
press.,
hPa
HPBL,
m
14 april, wed
wed1423:00+20se119787 0.1 101523
02:00+19se1196100 0.1 101224
05:00+19se1196100 0.0 101222
08:00+22sse0189100 0.0 1014102
11:00+27wnw2261100 0.0 10131096
14:00+27nw226798 0.6 10111264
17:00+24wnw128729 1.3 1010370
20:00+20se1197100 2.2 101314
15 april, thu
thu1523:00+20se11975 0.0 101427
02:00+19se21975 0.0 101228
05:00+19se219653 0.0 101231
08:00+22se0086100 0.0 1014125
11:00+27wnw226075 0.0 10131226
14:00+27wnw236642 1.3 10111305
17:00+24wnw128850 2.0 1010363
20:00+20se119796 2.7 101320
16 april, fri
fri1623:00+19se2196100 0.0 101424
02:00+19se1195100 0.0 101223
05:00+19se2195100 0.0 101223
08:00+22ssw008472 0.0 1014131
11:00+27wnw2262100 0.0 10131220
14:00+27nw2361100 0.1 10101388
17:00+23nw1292100 0.8 1011253
20:00+21se1197100 0.9 101315
17 april, sat
sat1723:00+20sse119699 0.0 101417
02:00+20se1197100 0.0 101320
05:00+20sse1196100 0.1 101315
08:00+22wsw118990 0.2 1015289
11:00+26wnw226822 0.4 10141135
14:00+27wnw236389 1.3 10111378
17:00+23wnw128794 2.1 1012451
20:00+20se0097100 2.5 101417
18 april, sun
sun1823:00+20se1198100 0.1 101516
02:00+20sse1198100 0.1 101325
05:00+19se1198100 0.0 101417
08:00+21sw1192100 0.0 1015175
11:00+27w245958 0.1 10141416
14:00+28w35497 0.1 10111806
17:00+25nw2271100 0.0 1011471
20:00+20se1194100 0.0 101423